Location: ????????
(55.5667°N, 37.5833°E)
Time: 19:21:07
(UTC+00:00)

SKYMED 3 - Pass Details

Date: 14 April 2026
Orbit: 535 x 557 km, 97.8° (Epoch: 19 May)

Event Time Altitude Azimuth Distance (km) Brightness Sun altitude
Rises 17:46:43 0° 17° (NNE) 2,705 8.1 -10.1°
Reaches altitude 10° 17:48:53 10° 22° (NNE) 1,807 7.1 -10.4°
Maximum altitude 17:52:43 58° 102° (ESE) 635 4.3 -10.8°
Drops below altitude 10° 17:56:32 10° 182° (S) 1,791 6.6 -11.3°
Sets 17:58:40 0° 186° (S) 2,678 7.5 -11.5°
